Regional Weather Roundup
Issued by NWS

Home | Current Version | Previous Version | Text Only | Print | Product List | Glossary On
Versions: 1 2 3 4 5 6 7 8 9 10 11 12 13 14 15 16 17 18 19 20 21 22 23 24 25 26 27 28 29 30 31 32 33 34 35 36 37 38 39 40 41 42 43 44 45 46 47 48 49 50
000
ASUS43 KTOP 020359
RWRKS

WEATHER ROUNDUP FOR KANSAS
NATIONAL WEATHER SERVICE GOODLAND KS
1000 PM CST THU DEC 01 2016

NOTE:  "FAIR" INDICATES FEW OR NO CLOUDS BELOW 12,000 FEET WITH NO
SIGNIFICANT WEATHER AND/OR OBSTRUCTIONS TO VISIBILITY.

KSZ001>006-013>018-027>032-041>047-020500-
NORTHWEST KANSAS

CITY           SKY/WX    TMP DP  RH WIND       PRES   REMARKS
GOODLAND       CLEAR     19   7  59 W5        30.02R
HAYS           CLEAR     29  17  61 W5        30.05R
HILL CITY      CLEAR     21  14  74 NW5       30.04R
RUSSELL        CLEAR     26  16  65 S5        30.04R
$$

KSZ061>065-074>080-084>089-020500-
SOUTHWEST KANSAS

CITY           SKY/WX    TMP DP  RH WIND       PRES   REMARKS
DODGE CITY     PTCLDY    33  13  43 E3        30.05R
ELKHART          N/A     28   6  39 E6          N/A
GARDEN CITY    CLOUDY    34  10  37 S3        30.04R
GREAT BEND     CLEAR     25  15  66 CALM      30.06S
LIBERAL        CLOUDY    25   5  42 CALM      30.05R
$$

KSZ066>073-081>083-090>101-020500-
SOUTHEAST KANSAS

CITY           SKY/WX    TMP DP  RH WIND       PRES   REMARKS
CHANUTE        CLOUDY    39  28  64 SE6       30.08R
COFFEYVILLE    CLOUDY    40  30  67 NE7       30.08R
HUTCHINSON     CLEAR     28  20  71 NE5       30.06R
MEDICINE LODGE   N/A     31  18  58 N6        30.05R
NEWTON         PTCLDY    34  19  54 E7        30.07R
PARSONS        CLOUDY    43  28  55 SE3       30.08S
WICHITA INTL   MOCLDY    39  23  52 NE7       30.05R
WICHITA JABRA  MOCLDY    33  23  66 N7        30.05S
WINFIELD       MOCLDY    42  26  53 E8        30.06R
$$

KSZ007>012-019>026-033>040-048>060-102>105-020500-
NORTHEAST KANSAS

CITY           SKY/WX    TMP DP  RH WIND       PRES   REMARKS
CONCORDIA      CLEAR     30  18  60 CALM      30.06R
EMPORIA        MOCLDY    32  22  66 NW3       30.07S
LAWRENCE       CLEAR     24  22  91 CALM      30.10R
MANHATTAN      CLEAR     25  20  81 CALM      30.09R
OLATHE IND     CLEAR     28  22  78 CALM      30.09R
OLATHE EXE     CLEAR     32  23  69 CALM      30.09R
SALINA         CLEAR     29  20  69 CALM      30.08R
TOPEKA BILLARD CLEAR     27  22  81 CALM      30.09R
TOPEKA FORBES  CLEAR     26  20  77 S3        30.09R
$$




USA.gov is the U.S. government's official web portal to all federal, state and local government web resources and services.